User: anonymous   Login
Location: Caltech
(34.1382°N, 118.1253°W)
Time: 00:37:40
(UTC-08:00)
Language:

Cosmos 1943 Rocket - Orbit

View from above orbital plane
View from above orbital plane
View from above satellite
View from above satellite

Ground track
Ground track

The orbit data is extracted from the following two-line orbital elements,

1 19120U 88039B   14352.73147404  .00000324  00000-0  17776-3 0  2292
2 19120 071.0165 090.6514 0020366 150.5261 010.5689 14.19069949377083
Epoch (UTC): 18 December 2014 17:33:19
Eccentricity: 0.0020366
inclination: 71.0165°
perigee height: 814 km
apogee height: 843 km
right ascension of ascending node: 90.6514°
argument of perigee: 150.5261°
revolutions per day: 14.19069949
mean anomaly at epoch: 10.5689°
orbit number at epoch: 37708

The dashed part of the orbit path shows where the satellite is in the earth's shadow,  

DLR